Weather Roundup
Issued by NWS Springfield, MO

Home | Current Version | Previous Version | Text Only | Print | Product List | Glossary On
Versions: 1 2 3 4 5 6 7 8 9 10 11 12 13 14 15 16 17 18 19 20 21 22 23 24 25 26 27 28 29 30 31 32 33 34 35 36 37 38 39 40 41 42 43 44 45 46 47 48 49 50
000
NZUS99 KSGF 192207
HRRSGF

HOURLY WEATHER
NATIONAL WEATHER SERVICE SPRINGFIELD MO
500 PM CDT THU OCT 19 2017

......SGF CWA......

CITY           SKY/WX    TMP DP  RH WIND       PRES   REMARKS
SPRINGFIELD    CLOUDY    80  46  30 S9        30.13S
JOPLIN         PTSUNNY   75  54  47 S8        30.12F
WEST PLAINS    SUNNY     79  43  27 SE6       30.18S
ROLLA          SUNNY     78  50  37 S10       30.14F
OSAGE BEACH    SUNNY     79  51  37 S8        30.13S
BRANSON        CLOUDY    77  45  31 S9        30.16S

......SURROUNDING SGF CWA......

CITY           SKY/WX    TMP DP  RH WIND       PRES   REMARKS
CHANUTE        MOSUNNY   75  54  47 S12       30.09S
PARSONS        MOSUNNY   76  52  43 S7        30.10F
COFFEYVILLE    CLOUDY    77  54  44 S14       30.09S
EMPORIA        SUNNY     78  49  35 S17       30.04S
GROVE OK       CLOUDY    77  55  47 S6        30.13S
ROGERS AR      PTSUNNY   77  53  43 SE7       30.15F
SILOAM SPRINGS SUNNY     77  53  43 S5        30.14F
HARRISON AR    CLOUDY    79  43  27 S8        30.16F
NEAR YELLVILLE MOSUNNY   79  48  33 VRB3      30.15S

......KANSAS AND MISSOURI......

CITY           SKY/WX    TMP DP  RH WIND       PRES   REMARKS
KANSAS CTY INT MOSUNNY   77  53  43 S13       30.05F
DOWNTOWN KC    SUNNY     81  53  37 S9        30.04F
COLUMBIA       SUNNY     77  52  41 S8        30.12S
SEDALIA        SUNNY     79  54  41 S10       30.11S
ST JOSEPH      SUNNY     80  51  36 S14G20    30.03F
ST LOUIS       SUNNY     79  51  37 S6        30.14S
SPIRIT OF STL  SUNNY     80  51  36 CALM      30.12S
KIRKSVILLE     SUNNY     74  55  51 S9        30.10S
WICHITA        MOSUNNY   78  46  32 S18       30.03S
TOPEKA         SUNNY     80  52  37 S10       30.03S
OLATHE         SUNNY     77  51  40 S10       30.07S

......TENNESSEE......

CITY           SKY/WX    TMP DP  RH WIND       PRES   REMARKS
MEMPHIS        MOSUNNY   75  49  39 SE8       30.19F
NASHVILLE      MOSUNNY   74  45  35 SE5       30.23F

......ARKANSAS.......

CITY           SKY/WX    TMP DP  RH WIND       PRES   REMARKS
FAYETTEVILLE   SUNNY     77  51  40 S10       30.15S
FT SMITH       MOSUNNY   81  50  33 E9        30.12F
LITTLE ROCK    PTSUNNY   76  54  46 S5        30.15F

......OKLAHOMA.......

CITY           SKY/WX    TMP DP  RH WIND       PRES   REMARKS
TULSA          CLOUDY    77  56  48 SE13      30.08S
PONCA CITY     MOSUNNY   76  52  43 SE13      30.06S
MCALESTER      MOSUNNY   78  59  51 SE8       30.11F
OKLAHOMA CITY  PTSUNNY   74  50  42 SE9       30.06F

......IOWA............

CITY           SKY/WX    TMP DP  RH WIND       PRES   REMARKS
DES MOINES     MOSUNNY   76  54  46 SE14      30.02F
QUAD CITIES    SUNNY     74  50  42 S7        30.09F

......ILLINOIS........

CITY           SKY/WX    TMP DP  RH WIND       PRES   REMARKS
QUINCY         SUNNY     76  51  41 S6        30.11S
CHICAGO        CLOUDY    64  26  23 E9        30.16S



USA.gov is the U.S. government's official web portal to all federal, state and local government web resources and services.